Flag Weather past 2 weeks in Toulon, France

Now
61 °F

Mostly cloudy.


Feels Like: 61 °F
Forecast: 57 / 62 °F
Wind: 9 mph from Northeast

Location: Hyeres Airport

Current Time: Nov 26, 2014 at 5:46:46 PM

Latest Report: Nov 26, 2014 at 5:00 PM


Visibility: N/A

Pressure: 29.86 "Hg

Humidity: 88%

Dew point: 57 °F

Location of ToulonLocation

Historic Weather in Toulon — Graph

°F

Toulon temperature yesterday

Maximum temperature yesterday: 64 °F (at 12:00 AM)
Minimum temperature yesterday: 57 °F (at 6:36 PM)
Average temperature yesterday: 61 °F

Past Weeks' High & Low Weather Summary

 TemperatureHumidityPressure
High68 °F (Nov 23, 12:00 PM)100% (Nov 26, 4:00 AM)30.24 "Hg (Nov 26, 4:00 AM)
Low43 °F (Nov 19, 2:00 AM)40% (Nov 16, 2:30 PM)29.53 "Hg (Nov 15, 1:30 PM)
Average58 °F80%29.92 "Hg
* Reported Nov 11 4:00 PM — Nov 26 4:30 PM, Toulon, Weather by CustomWeather, © 2014

Note: Actual official high and low records may vary slightly from our data, if they occured in-between our weather recording intervals... More about our weather records

Advertising

Toulon weather history for previous 24 hours

 ConditionsComfort  
Time TempWeatherWind HumidityBarometerVisibility
4:30 PM
Nov 26
61 °FMostly cloudy.9 mph88%29.89 "HgN/A
4:00 PM61 °FLight rain. Mostly cloudy.10 mph88%29.89 "Hg5 mi
3:30 PM63 °FMostly cloudy.12 mph83%29.89 "HgN/A
3:00 PM63 °FMostly cloudy.12 mph83%29.89 "HgN/A
2:30 PM63 °FMostly cloudy.9 mph83%29.92 "HgN/A
2:00 PM63 °FPartly sunny.12 mph83%29.92 "HgN/A
1:30 PM63 °FPartly sunny.10 mph77%29.92 "HgN/A
1:00 PM63 °FMostly cloudy.10 mph77%29.92 "HgN/A
12:30 PM63 °FMostly cloudy.9 mph77%29.95 "HgN/A
12:00 PM61 °FCloudy.9 mph88%29.95 "HgN/A
11:30 AM61 °FMostly cloudy.6 mph88%29.95 "HgN/A
11:00 AM59 °FOvercast.5 mph94%29.95 "HgN/A
10:30 AM59 °FLight rain. Overcast.6 mph88%29.98 "HgN/A
10:00 AM57 °FMostly cloudy.2 mph94%29.98 "HgN/A
9:30 AM57 °FCool.2 mph94%29.98 "HgN/A
9:00 AM57 °FCool.3 mph94%29.98 "HgN/A
8:30 AM57 °FLight rain. Mostly cloudy.3 mph94%29.98 "HgN/A
8:00 AM57 °FLight rain. Cloudy.6 mph94%29.95 "HgN/A
7:30 AM57 °FLight rain. Passing clouds.3 mph94%29.95 "HgN/A
7:00 AM57 °FLight rain. Mostly cloudy.3 mph94%29.95 "HgN/A
6:30 AM57 °FLight rain. Overcast.5 mph94%29.95 "HgN/A
6:00 AM57 °FRain. Overcast.3 mph94%29.95 "Hg5 mi
5:30 AM57 °FRain. Mostly cloudy.5 mph94%29.98 "Hg5 mi
5:00 AM57 °FRain. Fog.5 mph94%29.98 "Hg2 mi
4:30 AM57 °FRain. Fog.2 mph94%29.98 "Hg2 mi
4:00 AM57 °FRain. Fog.2 mph100%29.98 "Hg2 mi
3:30 AM57 °FThundershowers. Overcast.2 mph94%29.98 "Hg5 mi
3:00 AM57 °FThunderstorms. Overcast.7 mph94%29.98 "HgN/A
2:30 AM57 °FThundershowers. Mostly cloudy.3 mph94%30.01 "HgN/A
2:00 AM57 °FRain. Partly cloudy.6 mph94%30.01 "Hg4 mi
1:30 AM57 °FThundershowers. Passing clouds.2 mph94%30.01 "HgN/A
1:00 AM57 °FLight rain. Passing clouds.7 mph94%30.01 "HgN/A
12:30 AM57 °FMostly cloudy.6 mph94%30.04 "HgN/A
12:00 AM57 °FLight rain. Mostly cloudy.3 mph94%30.04 "HgN/A
9:43 PM
Nov 25
57 °FRain showers. Mostly cloudy.5 mph94%30.04 "Hg2 mi
8:00 PM57 °FRain. Mostly cloudy.6 mph94%30.04 "Hg5 mi
7:30 PM57 °FHeavy rain. Fog.6 mph94%30.04 "Hg2 mi
6:51 PM57 °FRain showers. Partly cloudy.8 mph94%30.04 "Hg2 mi
6:36 PM57 °FSprinkles. Partly cloudy.10 mph94%30.04 "Hg3 mi
6:05 PM59 °FRain showers. Partly cloudy.10 mph94%30.04 "Hg1 mi
5:40 PM61 °FRain showers. Partly cloudy.7 mph94%30.01 "Hg2 mi
5:24 PM61 °FSprinkles. Partly cloudy.9 mph94%30.04 "Hg3 mi
5:15 PM61 °FRain showers. Partly cloudy.8 mph94%30.04 "Hg2 mi
5:00 PM61 °FRain. Mostly cloudy.6 mph88%30.04 "Hg4 mi
Weather by CustomWeather, © 2014

See weather overviewHow to use our weather pages